Terminal Aerodrome Forecast
Issued by NWS

Home | Current Version | Previous Version | Text Only | Print | Product List | Glossary On
Versions: 1 2 3 4 5 6 7 8 9 10 11 12 13 14 15 16 17 18 19 20 21 22 23 24 25 26 27 28
000
FTUS41 KBGM 291300 AAA
TAFITH
TAF AMD
KITH 291357Z 2914/3012 30005KT P6SM SCT008 BKN025
      TEMPO 2914/2915 OVC008
     FM291600 32008KT P6SM BKN040
     FM300000 05003KT P6SM FEW050=

USA.gov is the U.S. government's official web portal to all federal, state and local government web resources and services.